Regional Weather Roundup
Issued by NWS

Home | Current Version | Previous Version | Graphics & Text | Print | Product List | Glossary On
Versions: 1 2 3 4 5 6 7 8 9 10 11 12 13 14 15 16 17 18 19 20 21 22 23 24 25 26 27 28 29 30 31 32 33 34 35 36 37 38 39 40 41 42 43 44 45 46 47 48 49 50
000
ASUS45 KSLC 010310
RWRUT

UTAH REGIONAL WEATHER ROUNDUP
NATIONAL WEATHER SERVICE SALT LAKE CITY UT
900 PM MDT SAT APR 30 2016

UTZ001>011-023>025-010400-

NORTHERN UTAH

CITY           SKY/WX    TMP DP  RH WIND       PRES   REMARKS
BRIGHAM CITY   CLOUDY    53  28  38 N5G24     30.05R
HILL AFB       CLOUDY    49  30  48 E24G33    29.99R
LOGAN          CLOUDY    50  31  48 E29G40    30.05R
OGDEN          CLOUDY    50  30  46 VRB7G23   30.01R
PROVO AIRPORT  MOCLDY    54  25  32 CALM      29.94R
SALT LAKE CITY CLOUDY    54  29  38 N10G18    29.98R
VERNAL         CLOUDY    44  27  51 NE13G22   30.06R
WENDOVER       PTCLDY    52  36  54 N18G24    30.01S
HEBER CITY     CLOUDY    41  36  81 CALM      29.98R

$$

UTZ012>022-026-027-010400-

SOUTHERN/CENTRAL UTAH

CITY           SKY/WX    TMP DP  RH WIND       PRES   REMARKS
BLANDING       PTCLDY    47  36  67 CALM      29.94S
BRYCE CANYON   MOCLDY    37  32  82 NE7       29.96R WCI  32
CEDAR CITY     CLOUDY    43  39  86 N7        29.91R
DELTA          PTCLDY    50  32  50 N12       29.91R
HANKSVILLE     PTCLDY    52  30  43 NE22      29.93R
MILFORD        CLOUDY    48  39  71 N8        29.91R
MOAB/CYNLANDS  PTCLDY    50  31  48 NE9       29.92R
PRICE          MOCLDY    44  26  49 NE16      29.99R
ST GEORGE      CLOUDY    55  43  62 NE13      29.85S

$$

REGIONAL REPORTS     COLORADO/ARIZONA

CITY           SKY/WX    TMP DP  RH WIND       PRES   REMARKS
CRAIG, CO      CLOUDY    40  22  48 E13       30.06R WCI  32
GRAND JUNCTION CLOUDY    49  34  56 NE8       29.92R
RIFLE          CLOUDY    46  36  68 CALM      29.97R
MONTROSE       CLOUDY    46  29  51 N3        29.95R
CORTEZ         CLEAR     38  34  85 SE6       29.88S WCI  33
PAGE, AZ       MOCLDY    52  40  63 CALM      29.85S
GRAND CANYON   CLOUDY    39  35  86 NE8       29.90S WCI  33
KINGMAN        MOCLDY    52  45  77 NE6       29.81R
FLAGSTAFF      MIX PCPN  36  35  96 E9        29.87R WCI  29

$$

REGIONAL REPORTS    NEVADA/IDAHO/WYOMING

CITY           SKY/WX    TMP DP  RH WIND       PRES   REMARKS
LAS VEGAS, NV  MOCLDY    57  48  72 S5        29.77R
ELY            PTCLDY    40  35  83 N13       30.01R WCI  32
ELKO           CLEAR     50  32  50 NE10      30.03R
POCATELLO, ID  CLOUDY    51  40  65 SE5       30.06R
BURLEY         CLOUDY    50  42  74 W6        30.05R
EVANSTON, WY   CLOUDY    35  27  72 E10G21    30.11S WCI  27
ROCK SPRINGS   CLOUDY    35  28  75 E24       30.16R WCI  23
KEMMERER         N/A     32  28  86 E18       30.15R WCI  20

$$



USA.gov is the U.S. government's official web portal to all federal, state and local government web resources and services.